Marion, IN

1:55 PM EST on January 17, 2018 (GMT -0500)
Marion Municipal

Weather History for KMZZ - September, 2014

Change the Weather History Date:

Monday, September 1, 2014

  Actual Average (KMIE) Record (KMIE)
Temperature  
Mean Temperature 75 °F -  
Max Temperature 82 °F 82 °F 94 °F (2011)
Min Temperature 68 °F 59 °F 44 °F (1967)
Cooling Degree Days 10    
Growing Degree Days 25 (Base 50)    
Moisture  
Dew Point 69 °F    
Average Humidity 82    
Maximum Humidity 98    
Minimum Humidity 60    
Precipitation  
Precipitation 0.00 in - - ()
Sea Level Pressure  
Sea Level Pressure 29.91 in    
Wind  
Wind Speed 10 mph (SSW)    
Max Wind Speed 20 mph    
Max Gust Speed 28 mph    
Visibility 7 miles    
Events Rain    
Averages and records for this station are not official NWS values.
T = Trace of Precipitation, MM = Missing Value Source: NWS Daily Summary

Daily Weather History Graph

Daily Weather History Graph

Search for Another Location

Airport or City:

Trip Planner

Search our weather history database for the weather conditions in past years. The results will help you decide how hot, cold, wet, or windy it might be!

Date:

Astronomy

Sep. 01, 2014 Rise Set
Actual Time 7:09 AM EDT 8:14 PM EDT
Civil Twilight 6:41 AM EDT 8:42 PM EDT
Nautical Twilight 6:08 AM EDT 9:15 PM EDT
Astronomical Twilight 5:33 AM EDT 9:50 PM EDT
Moon 1:56 PM EDT (9/1) No Moon Set
Length of Visible Light 14h 00m
Length of Day
13h 04m
Waxing Crescent, 42% of the Moon is Illuminated
Sep 1
Waxing Crescent
Sep 2
First Quarter
Sep 8
Full
Sep 15
Last Quarter
Sep 24
New

Hourly Weather History & Observations

Time (EDT) Temp. Heat Index Dew Point Humidity Pressure Visibility Wind Dir Wind Speed Gust Speed Precip Events Conditions
12:15 AM 70.9 °F - 68.2 °F 91% 29.96 in 10.0 mi South 6.9 mph - N/A   Scattered Clouds
12:35 AM 70.5 °F - 68.0 °F 92% 29.97 in 7.0 mi SSW 5.8 mph - N/A   Scattered Clouds
1:15 AM 70.7 °F - 68.4 °F 92% 29.99 in 7.0 mi SSW 6.9 mph - N/A   Scattered Clouds
1:35 AM 70.7 °F - 68.4 °F 92% 29.97 in 7.0 mi South 8.1 mph - N/A   Scattered Clouds
1:55 AM 70.5 °F - 68.4 °F 93% 29.97 in 7.0 mi South 5.8 mph - N/A   Clear
2:15 AM 70.2 °F - 68.4 °F 94% 29.97 in 7.0 mi SSW 6.9 mph - N/A   Clear
2:35 AM 69.8 °F - 68.4 °F 95% 29.97 in 5.0 mi South 4.6 mph - N/A   Clear
3:15 AM 68.9 °F - 68.0 °F 97% 29.97 in 5.0 mi South 4.6 mph - N/A   Scattered Clouds
3:35 AM 68.9 °F - 68.0 °F 97% 29.96 in 5.0 mi South 4.6 mph - N/A   Scattered Clouds
3:55 AM 68.9 °F - 68.0 °F 97% 29.95 in 5.0 mi South 4.6 mph - N/A   Scattered Clouds
4:15 AM 68.7 °F - 68.0 °F 98% 29.95 in 4.0 mi South 5.8 mph - N/A   Scattered Clouds
4:35 AM 69.1 °F - 68.4 °F 98% 29.95 in 5.0 mi South 5.8 mph - N/A   Mostly Cloudy
4:55 AM 69.4 °F - 68.7 °F 98% 29.95 in 4.0 mi South 9.2 mph - N/A Rain Light Rain
5:15 AM 70.0 °F - 69.3 °F 98% 29.95 in 5.0 mi SSW 8.1 mph - N/A   Overcast
5:35 AM 70.2 °F - 69.1 °F 96% 29.95 in 7.0 mi South 9.2 mph - N/A   Overcast
5:55 AM 70.3 °F - 69.1 °F 96% 29.94 in 4.0 mi South 8.1 mph - N/A   Overcast
6:15 AM 70.5 °F - 69.6 °F 97% 29.94 in 4.0 mi South 9.2 mph - N/A   Overcast
6:35 AM 70.3 °F - 69.4 °F 97% 29.94 in 4.0 mi South 8.1 mph - N/A   Overcast
7:15 AM 70.7 °F - 69.8 °F 97% 29.95 in 2.5 mi South 9.2 mph - N/A   Overcast
7:35 AM 71.1 °F - 70.0 °F 96% 29.94 in 3.0 mi South 8.1 mph - N/A   Overcast
7:55 AM 71.4 °F - 70.2 °F 96% 29.94 in 3.0 mi SSW 9.2 mph - N/A   Overcast
8:15 AM 71.8 °F - 70.5 °F 96% 29.94 in 4.0 mi SSW 9.2 mph - N/A   Mostly Cloudy
8:35 AM 72.5 °F - 70.7 °F 94% 29.94 in 4.0 mi SSW 11.5 mph - N/A   Mostly Cloudy
8:55 AM 73.0 °F - 70.7 °F 92% 29.93 in 5.0 mi SSW 11.5 mph 18.4 mph N/A   Overcast
9:15 AM 73.9 °F - 70.7 °F 90% 29.93 in 4.0 mi SSW 12.7 mph 17.3 mph N/A   Overcast
9:35 AM 75.2 °F - 70.7 °F 86% 29.92 in 5.0 mi SSW 12.7 mph 19.6 mph N/A   Haze
9:55 AM 75.7 °F - 70.3 °F 83% 29.92 in 7.0 mi SW 12.7 mph 21.9 mph N/A   Mostly Cloudy
10:15 AM 76.6 °F - 70.2 °F 80% 29.91 in 7.0 mi SSW 13.8 mph 19.6 mph N/A   Scattered Clouds
10:35 AM 77.5 °F - 70.2 °F 78% 29.91 in 7.0 mi SSW 19.6 mph 23.0 mph N/A   Mostly Cloudy
10:55 AM 78.1 °F - 70.0 °F 76% 29.90 in 5.0 mi SSW 18.4 mph 23.0 mph N/A   Haze
11:15 AM 78.6 °F - 69.6 °F 74% 29.89 in 7.0 mi SSW 19.6 mph 25.3 mph N/A   Mostly Cloudy
11:35 AM 79.2 °F - 69.6 °F 72% 29.89 in 7.0 mi SW 18.4 mph 24.2 mph N/A   Mostly Cloudy
11:55 AM 79.2 °F - 69.4 °F 72% 29.89 in 7.0 mi SSW 18.4 mph 23.0 mph N/A   Overcast
12:15 PM 80.2 °F 83.2 °F 69.3 °F 69% 29.88 in 10.0 mi SW 18.4 mph 26.5 mph N/A   Mostly Cloudy
12:35 PM 80.2 °F 83.1 °F 68.9 °F 68% 29.89 in 7.0 mi SSW 18.4 mph 24.2 mph N/A   Mostly Cloudy
1:15 PM 81.7 °F 84.9 °F 69.1 °F 65% 29.88 in 7.0 mi SW 16.1 mph 20.7 mph N/A   Overcast
1:35 PM 81.5 °F 84.6 °F 68.9 °F 65% 29.87 in 7.0 mi SSW 17.3 mph 23.0 mph N/A   Overcast
1:55 PM 81.7 °F 85.1 °F 69.3 °F 66% 29.86 in 7.0 mi SSW 11.5 mph 20.7 mph N/A   Mostly Cloudy
2:15 PM 81.7 °F 84.9 °F 69.1 °F 65% 29.87 in 10.0 mi SW 18.4 mph 21.9 mph N/A   Mostly Cloudy
2:35 PM 81.1 °F 84.0 °F 68.5 °F 65% 29.87 in 7.0 mi SW 16.1 mph 21.9 mph N/A   Mostly Cloudy
2:55 PM 81.5 °F 84.6 °F 68.9 °F 65% 29.87 in 7.0 mi SW 13.8 mph 21.9 mph N/A   Mostly Cloudy
3:15 PM 81.5 °F 84.8 °F 69.1 °F 66% 29.86 in 5.0 mi SW 15.0 mph 24.2 mph N/A   Haze
3:35 PM 81.1 °F 84.2 °F 68.9 °F 66% 29.85 in 7.0 mi SW 13.8 mph 21.9 mph N/A   Overcast
3:55 PM 80.6 °F 83.6 °F 69.1 °F 68% 29.85 in 7.0 mi SW 15.0 mph 25.3 mph N/A   Overcast
4:15 PM 81.0 °F 84.1 °F 69.1 °F 67% 29.85 in 7.0 mi SW 17.3 mph 25.3 mph N/A   Scattered Clouds
4:35 PM 81.5 °F 84.8 °F 69.3 °F 66% 29.84 in 7.0 mi SW 19.6 mph 24.2 mph N/A   Mostly Cloudy
4:55 PM 82.4 °F 85.8 °F 69.3 °F 64% 29.85 in 7.0 mi SW 18.4 mph 27.6 mph N/A   Mostly Cloudy
5:15 PM 82.0 °F 85.1 °F 68.4 °F 63% 29.85 in 7.0 mi SW 18.4 mph 25.3 mph N/A   Scattered Clouds
5:35 PM 81.5 °F 84.1 °F 67.5 °F 62% 29.86 in 7.0 mi WSW 15.0 mph 24.2 mph N/A   Scattered Clouds
6:15 PM 82.0 °F 84.5 °F 67.1 °F 60% 29.85 in 10.0 mi SW 11.5 mph 23.0 mph N/A   Scattered Clouds
6:35 PM 81.1 °F 83.4 °F 66.7 °F 61% 29.86 in 7.0 mi WSW 13.8 mph 19.6 mph N/A   Scattered Clouds
7:35 PM 78.4 °F - 67.1 °F 68% 29.87 in 7.0 mi WSW 10.4 mph 18.4 mph N/A   Scattered Clouds
7:55 PM 77.5 °F - 66.7 °F 69% 29.87 in 10.0 mi SW 10.4 mph 16.1 mph N/A   Scattered Clouds
8:15 PM 76.6 °F - 67.1 °F 72% 29.88 in 10.0 mi WSW 9.2 mph - N/A   Scattered Clouds
8:35 PM 75.6 °F - 67.1 °F 75% 29.88 in 7.0 mi SW 9.2 mph - N/A   Scattered Clouds
8:55 PM 74.8 °F - 67.3 °F 77% 29.89 in 10.0 mi WSW 8.1 mph - N/A   Scattered Clouds
9:15 PM 74.5 °F - 67.6 °F 79% 29.89 in 7.0 mi WSW 5.8 mph - N/A   Scattered Clouds
9:35 PM 73.2 °F - 67.8 °F 83% 29.89 in 10.0 mi SW 6.9 mph - N/A   Clear
9:55 PM 72.0 °F - 67.8 °F 87% 29.90 in 10.0 mi SW 6.9 mph - N/A   Clear
10:15 PM 71.8 °F - 66.6 °F 84% 29.91 in 10.0 mi WSW 5.8 mph - N/A   Clear
10:35 PM 71.1 °F - 66.2 °F 85% 29.92 in 10.0 mi WSW 4.6 mph - N/A   Clear
10:55 PM 70.0 °F - 65.8 °F 87% 29.92 in 10.0 mi SW 5.8 mph - N/A   Clear
11:15 PM 69.1 °F - 65.1 °F 87% 29.92 in 10.0 mi WSW 5.8 mph - N/A   Clear
11:35 PM 68.5 °F - 64.4 °F 87% 29.93 in 10.0 mi SW 4.6 mph - N/A   Clear
11:55 PM 68.2 °F - 64.4 °F 88% 29.93 in 10.0 mi SW 5.8 mph - N/A   Clear